Time,TemperatureF,DewpointF,PressureIn,WindDirection,WindDirectionDegrees,WindSpeedMPH,WindSpeedGustMPH,Humidity,HourlyPrecipIn,Conditions,Clouds,dailyrainin,SoftwareType,DateUTC
2013-01-14 00:02:00,20.0,3.0,30.08,SW,236,0.0,-999.0,46,-99.99,,,-99.99,,2013-01-14 07:02:00,
2013-01-14 00:11:00,20.0,3.0,30.08,SW,236,0.0,-999.0,46,-99.99,,,-99.99,,2013-01-14 07:11:00,
2013-01-14 00:22:00,19.0,3.0,30.07,SW,236,2.0,-999.0,48,-99.99,,,-99.99,,2013-01-14 07:22:00,
2013-01-14 00:32:00,18.0,3.0,30.08,SW,236,1.0,-999.0,51,-99.99,,,-99.99,,2013-01-14 07:32:00,
2013-01-14 00:42:00,18.0,3.0,30.08,SW,236,1.0,-999.0,51,-99.99,,,-99.99,,2013-01-14 07:42:00,
2013-01-14 00:52:00,18.0,4.0,30.07,SW,236,1.0,-999.0,53,-99.99,,,-99.99,,2013-01-14 07:52:00,
2013-01-14 01:02:00,18.0,4.0,30.08,SW,236,0.0,-999.0,54,-99.99,,,-99.99,,2013-01-14 08:02:00,
2013-01-14 01:11:00,18.0,4.0,30.08,SW,236,0.0,-999.0,54,-99.99,,,-99.99,,2013-01-14 08:11:00,
2013-01-14 01:22:00,19.0,5.0,30.09,SW,236,1.0,-999.0,53,-99.99,,,-99.99,,2013-01-14 08:22:00,
2013-01-14 01:32:00,19.0,3.0,30.09,SW,236,1.0,-999.0,50,-99.99,,,-99.99,,2013-01-14 08:32:00,
2013-01-14 01:42:00,19.0,3.0,30.09,SW,236,1.0,-999.0,50,-99.99,,,-99.99,,2013-01-14 08:42:00,
2013-01-14 01:52:00,19.0,3.0,30.09,SW,236,0.0,-999.0,50,-99.99,,,-99.99,,2013-01-14 08:52:00,
2013-01-14 02:02:00,18.0,3.0,30.10,SW,236,0.0,-999.0,50,-99.99,,,-99.99,,2013-01-14 09:02:00,
2013-01-14 02:11:00,18.0,3.0,30.10,SW,236,0.0,-999.0,50,-99.99,,,-99.99,,2013-01-14 09:11:00,
2013-01-14 02:22:00,18.0,3.0,30.10,SW,236,0.0,-999.0,51,-99.99,,,-99.99,,2013-01-14 09:22:00,
2013-01-14 02:33:00,18.0,3.0,30.10,SW,236,0.0,-999.0,52,-99.99,,,-99.99,,2013-01-14 09:33:00,
2013-01-14 02:42:00,18.0,3.0,30.10,SW,236,0.0,-999.0,52,-99.99,,,-99.99,,2013-01-14 09:42:00,
2013-01-14 02:52:00,18.0,3.0,30.09,SW,236,0.0,-999.0,51,-99.99,,,-99.99,,2013-01-14 09:52:00,
2013-01-14 03:02:00,18.0,3.0,30.11,SW,236,0.0,-999.0,52,-99.99,,,-99.99,,2013-01-14 10:02:00,
2013-01-14 03:11:00,18.0,3.0,30.11,SW,236,0.0,-999.0,52,-99.99,,,-99.99,,2013-01-14 10:11:00,
2013-01-14 03:22:00,17.0,3.0,30.10,SW,236,0.0,-999.0,53,-99.99,,,-99.99,,2013-01-14 10:22:00,
2013-01-14 03:32:00,17.0,3.0,30.10,SW,236,0.0,-999.0,54,-99.99,,,-99.99,,2013-01-14 10:32:00,
2013-01-14 03:42:00,17.0,3.0,30.10,SW,236,0.0,-999.0,54,-99.99,,,-99.99,,2013-01-14 10:42:00,
2013-01-14 03:52:00,17.0,3.0,30.10,SW,236,1.0,-999.0,54,-99.99,,,-99.99,,2013-01-14 10:52:00,
2013-01-14 04:02:00,16.0,3.0,30.10,SW,236,0.0,-999.0,56,-99.99,,,-99.99,,2013-01-14 11:02:00,
2013-01-14 04:11:00,16.0,3.0,30.10,SW,236,0.0,-999.0,56,-99.99,,,-99.99,,2013-01-14 11:11:00,
2013-01-14 04:22:00,15.0,3.0,30.10,SW,236,0.0,-999.0,58,-99.99,,,-99.99,,2013-01-14 11:22:00,
2013-01-14 04:32:00,15.0,3.0,30.10,SW,236,0.0,-999.0,58,-99.99,,,-99.99,,2013-01-14 11:32:00,
2013-01-14 04:42:00,15.0,3.0,30.10,SW,236,0.0,-999.0,58,-99.99,,,-99.99,,2013-01-14 11:42:00,
2013-01-14 04:53:00,14.0,2.0,30.09,SW,236,1.0,-999.0,59,-99.99,,,-99.99,,2013-01-14 11:53:00,
2013-01-14 05:02:00,14.0,3.0,30.09,SW,236,0.0,-999.0,60,-99.99,,,-99.99,,2013-01-14 12:02:00,
2013-01-14 05:12:00,14.0,3.0,30.09,SW,236,0.0,-999.0,60,-99.99,,,-99.99,,2013-01-14 12:12:00,
2013-01-14 05:22:00,14.0,3.0,30.09,SW,236,1.0,-999.0,61,-99.99,,,-99.99,,2013-01-14 12:22:00,
2013-01-14 05:33:00,14.0,3.0,30.09,SW,236,1.0,-999.0,61,-99.99,,,-99.99,,2013-01-14 12:33:00,
2013-01-14 05:42:00,14.0,3.0,30.09,SW,236,1.0,-999.0,61,-99.99,,,-99.99,,2013-01-14 12:42:00,
2013-01-14 05:52:00,14.0,3.0,30.10,SW,236,0.0,-999.0,61,-99.99,,,-99.99,,2013-01-14 12:52:00,
2013-01-14 06:03:00,14.0,3.0,30.09,SW,236,1.0,-999.0,61,-99.99,,,-99.99,,2013-01-14 13:03:00,
2013-01-14 06:12:00,14.0,3.0,30.09,SW,236,1.0,-999.0,61,-99.99,,,-99.99,,2013-01-14 13:12:00,
2013-01-14 06:22:00,15.0,3.0,30.09,WSW,237,2.0,-999.0,59,-99.99,,,-99.99,,2013-01-14 13:22:00,
2013-01-14 06:33:00,15.0,3.0,30.10,WSW,237,1.0,-999.0,58,-99.99,,,-99.99,,2013-01-14 13:33:00,
2013-01-14 06:42:00,15.0,3.0,30.10,WSW,237,1.0,-999.0,58,-99.99,,,-99.99,,2013-01-14 13:42:00,
2013-01-14 06:52:00,15.0,3.0,30.10,WSW,237,0.0,-999.0,57,-99.99,,,-99.99,,2013-01-14 13:52:00,
2013-01-14 07:02:00,15.0,3.0,30.11,WSW,237,1.0,-999.0,58,-99.99,,,-99.99,,2013-01-14 14:02:00,
2013-01-14 07:12:00,15.0,3.0,30.11,WSW,237,1.0,-999.0,58,-99.99,,,-99.99,,2013-01-14 14:12:00,
2013-01-14 07:22:00,14.0,2.0,30.11,WSW,237,0.0,-999.0,59,-99.99,,,-99.99,,2013-01-14 14:22:00,
2013-01-14 07:33:00,14.0,3.0,30.12,WSW,237,0.0,-999.0,60,-99.99,,,-99.99,,2013-01-14 14:33:00,
2013-01-14 07:42:00,14.0,3.0,30.12,WSW,237,0.0,-999.0,60,-99.99,,,-99.99,,2013-01-14 14:42:00,
2013-01-14 07:52:00,14.0,3.0,30.13,WSW,237,1.0,-999.0,60,-99.99,,,-99.99,,2013-01-14 14:52:00,
2013-01-14 08:02:00,14.0,3.0,30.13,WSW,237,1.0,-999.0,61,-99.99,,,-99.99,,2013-01-14 15:02:00,
2013-01-14 08:12:00,14.0,3.0,30.13,WSW,237,1.0,-999.0,61,-99.99,,,-99.99,,2013-01-14 15:12:00,
2013-01-14 08:23:00,14.0,3.0,30.14,WSW,237,0.0,-999.0,62,-99.99,,,-99.99,,2013-01-14 15:23:00,
2013-01-14 08:33:00,18.0,6.0,30.14,WSW,237,0.0,-999.0,58,-99.99,,,-99.99,,2013-01-14 15:33:00,
2013-01-14 08:42:00,18.0,6.0,30.14,WSW,237,0.0,-999.0,58,-99.99,,,-99.99,,2013-01-14 15:42:00,
2013-01-14 08:52:00,22.0,6.0,30.15,WSW,237,0.0,-999.0,49,-99.99,,,-99.99,,2013-01-14 15:52:00,
2013-01-14 09:02:00,25.0,5.0,30.16,WSW,237,0.0,-999.0,41,-99.99,,,-99.99,,2013-01-14 16:02:00,
2013-01-14 09:22:00,27.0,4.0,30.16,WSW,237,0.0,-999.0,36,-99.99,,,-99.99,,2013-01-14 16:22:00,
2013-01-14 09:33:00,28.0,1.0,30.16,WSW,240,1.0,-999.0,30,-99.99,,,-99.99,,2013-01-14 16:33:00,
2013-01-14 09:42:00,28.0,1.0,30.16,WSW,240,1.0,-999.0,30,-99.99,,,-99.99,,2013-01-14 16:42:00,
2013-01-14 09:52:00,30.0,1.0,30.16,North,360,4.0,-999.0,28,-99.99,,,-99.99,,2013-01-14 16:52:00,
2013-01-14 10:02:00,30.0,-1.0,30.16,North,360,3.0,-999.0,26,-99.99,,,-99.99,,2013-01-14 17:02:00,
2013-01-14 10:11:00,30.0,-1.0,30.16,North,360,3.0,-999.0,26,-99.99,,,-99.99,,2013-01-14 17:11:00,
2013-01-14 10:22:00,31.0,-1.0,30.16,North,11,2.0,-999.0,25,-99.99,,,-99.99,,2013-01-14 17:22:00,
2013-01-14 10:33:00,32.0,-1.0,30.17,North,360,2.0,-999.0,24,-99.99,,,-99.99,,2013-01-14 17:33:00,
2013-01-14 10:42:00,32.0,-1.0,30.17,North,360,2.0,-999.0,24,-99.99,,,-99.99,,2013-01-14 17:42:00,
2013-01-14 10:53:00,32.0,-1.0,30.16,NNE,32,4.0,-999.0,24,-99.99,,,-99.99,,2013-01-14 17:53:00,
2013-01-14 11:02:00,32.0,-1.0,30.16,NE,45,3.0,-999.0,24,-99.99,,,-99.99,,2013-01-14 18:02:00,
2013-01-14 11:12:00,32.0,-1.0,30.16,NE,45,3.0,-999.0,24,-99.99,,,-99.99,,2013-01-14 18:12:00,
2013-01-14 11:22:00,33.0,-1.0,30.16,North,360,3.0,-999.0,23,-99.99,,,-99.99,,2013-01-14 18:22:00,
2013-01-14 11:33:00,34.0,0.0,30.14,NNW,339,1.0,-999.0,23,-99.99,,,-99.99,,2013-01-14 18:33:00,
2013-01-14 11:42:00,34.0,0.0,30.14,NNW,339,1.0,-999.0,23,-99.99,,,-99.99,,2013-01-14 18:42:00,
2013-01-14 11:52:00,35.0,0.0,30.14,NNE,19,1.0,-999.0,22,-99.99,,,-99.99,,2013-01-14 18:52:00,
2013-01-14 12:02:00,35.0,0.0,30.13,NE,34,1.0,-999.0,22,-99.99,,,-99.99,,2013-01-14 19:02:00,
2013-01-14 12:12:00,35.0,0.0,30.13,NE,34,1.0,-999.0,22,-99.99,,,-99.99,,2013-01-14 19:12:00,
2013-01-14 12:22:00,36.0,0.0,30.12,North,9,3.0,-999.0,21,-99.99,,,-99.99,,2013-01-14 19:22:00,
2013-01-14 12:32:00,37.0,2.0,30.12,North,350,2.0,-999.0,22,-99.99,,,-99.99,,2013-01-14 19:32:00,
2013-01-14 12:42:00,37.0,2.0,30.12,North,350,2.0,-999.0,22,-99.99,,,-99.99,,2013-01-14 19:42:00,
2013-01-14 12:52:00,37.0,3.0,30.12,WNW,299,6.0,-999.0,23,-99.99,,,-99.99,,2013-01-14 19:52:00,
2013-01-14 13:03:00,36.0,3.0,30.11,WNW,298,11.0,-999.0,24,-99.99,,,-99.99,,2013-01-14 20:03:00,
2013-01-14 13:12:00,36.0,3.0,30.11,WNW,298,11.0,-999.0,24,-99.99,,,-99.99,,2013-01-14 20:12:00,
2013-01-14 13:22:00,37.0,3.0,30.10,WNW,291,8.0,-999.0,23,-99.99,,,-99.99,,2013-01-14 20:22:00,
2013-01-14 13:33:00,37.0,4.0,30.10,NW,317,7.0,-999.0,24,-99.99,,,-99.99,,2013-01-14 20:33:00,
2013-01-14 13:42:00,37.0,4.0,30.10,NW,317,7.0,-999.0,24,-99.99,,,-99.99,,2013-01-14 20:42:00,
2013-01-14 13:52:00,38.0,4.0,30.09,NW,311,5.0,-999.0,23,-99.99,,,-99.99,,2013-01-14 20:52:00,
2013-01-14 14:02:00,37.0,4.0,30.10,West,278,9.0,-999.0,24,-99.99,,,-99.99,,2013-01-14 21:02:00,
2013-01-14 14:12:00,37.0,4.0,30.10,West,278,9.0,-999.0,24,-99.99,,,-99.99,,2013-01-14 21:12:00,
2013-01-14 14:22:00,36.0,2.0,30.10,NNE,13,8.0,-999.0,23,-99.99,,,-99.99,,2013-01-14 21:22:00,
2013-01-14 14:33:00,37.0,2.0,30.10,NW,309,6.0,-999.0,22,-99.99,,,-99.99,,2013-01-14 21:33:00,
2013-01-14 14:42:00,37.0,2.0,30.10,NW,309,6.0,-999.0,22,-99.99,,,-99.99,,2013-01-14 21:42:00,
2013-01-14 14:53:00,38.0,2.0,30.10,WNW,297,7.0,-999.0,21,-99.99,,,-99.99,,2013-01-14 21:53:00,
2013-01-14 15:02:00,37.0,1.0,30.10,West,279,7.0,-999.0,21,-99.99,,,-99.99,,2013-01-14 22:02:00,
2013-01-14 15:12:00,37.0,1.0,30.10,West,279,7.0,-999.0,21,-99.99,,,-99.99,,2013-01-14 22:12:00,
2013-01-14 15:22:00,38.0,1.0,30.10,WNW,294,4.0,-999.0,20,-99.99,,,-99.99,,2013-01-14 22:22:00,
2013-01-14 15:32:00,37.0,0.0,30.11,SSW,213,6.0,-999.0,20,-99.99,,,-99.99,,2013-01-14 22:32:00,
2013-01-14 15:42:00,37.0,0.0,30.11,SSW,213,6.0,-999.0,20,-99.99,,,-99.99,,2013-01-14 22:42:00,
2013-01-14 15:52:00,37.0,0.0,30.11,West,276,6.0,-999.0,20,-99.99,,,-99.99,,2013-01-14 22:52:00,
2013-01-14 16:02:00,37.0,1.0,30.12,WNW,282,5.0,-999.0,21,-99.99,,,-99.99,,2013-01-14 23:02:00,
2013-01-14 16:12:00,37.0,1.0,30.12,WNW,282,5.0,-999.0,21,-99.99,,,-99.99,,2013-01-14 23:12:00,
2013-01-14 16:22:00,37.0,2.0,30.13,WNW,284,4.0,-999.0,22,-99.99,,,-99.99,,2013-01-14 23:22:00,
2013-01-14 16:32:00,37.0,3.0,30.13,NW,325,4.0,-999.0,23,-99.99,,,-99.99,,2013-01-14 23:32:00,
2013-01-14 16:42:00,37.0,3.0,30.13,NW,325,4.0,-999.0,23,-99.99,,,-99.99,,2013-01-14 23:42:00,
2013-01-14 16:52:00,36.0,4.0,30.13,NW,304,4.0,-999.0,25,-99.99,,,-99.99,,2013-01-14 23:52:00,
2013-01-14 17:02:00,36.0,4.0,30.14,NW,323,4.0,-999.0,25,-99.99,,,-99.99,,2013-01-15 00:02:00,
2013-01-14 17:11:00,36.0,4.0,30.14,NW,323,4.0,-999.0,25,-99.99,,,-99.99,,2013-01-15 00:11:00,
2013-01-14 17:22:00,35.0,3.0,30.14,WNW,293,4.0,-999.0,25,-99.99,,,-99.99,,2013-01-15 00:22:00,
2013-01-14 17:32:00,34.0,4.0,30.14,WNW,283,5.0,-999.0,27,-99.99,,,-99.99,,2013-01-15 00:32:00,
2013-01-14 17:42:00,34.0,4.0,30.14,WNW,283,5.0,-999.0,27,-99.99,,,-99.99,,2013-01-15 00:42:00,
2013-01-14 17:52:00,32.0,3.0,30.14,WNW,285,4.0,-999.0,28,-99.99,,,-99.99,,2013-01-15 00:52:00,
2013-01-14 18:02:00,31.0,3.0,30.15,WNW,292,5.0,-999.0,29,-99.99,,,-99.99,,2013-01-15 01:02:00,
2013-01-14 18:12:00,31.0,3.0,30.15,WNW,297,6.0,-999.0,30,-99.99,,,-99.99,,2013-01-15 01:12:00,
2013-01-14 18:22:00,31.0,3.0,30.15,WNW,297,6.0,-999.0,30,-99.99,,,-99.99,,2013-01-15 01:22:00,
2013-01-14 18:32:00,30.0,3.0,30.16,WNW,298,4.0,-999.0,31,-99.99,,,-99.99,,2013-01-15 01:32:00,
2013-01-14 18:42:00,30.0,3.0,30.16,WNW,298,4.0,-999.0,31,-99.99,,,-99.99,,2013-01-15 01:42:00,
2013-01-14 18:52:00,29.0,3.0,30.17,WNW,294,2.0,-999.0,32,-99.99,,,-99.99,,2013-01-15 01:52:00,
2013-01-14 19:02:00,28.0,3.0,30.18,WNW,294,2.0,-999.0,33,-99.99,,,-99.99,,2013-01-15 02:02:00,
2013-01-14 19:11:00,28.0,3.0,30.18,WNW,294,2.0,-999.0,33,-99.99,,,-99.99,,2013-01-15 02:11:00,
2013-01-14 19:22:00,28.0,3.0,30.18,WNW,294,0.0,-999.0,34,-99.99,,,-99.99,,2013-01-15 02:22:00,
2013-01-14 19:32:00,27.0,2.0,30.18,WNW,294,3.0,-999.0,34,-99.99,,,-99.99,,2013-01-15 02:32:00,
2013-01-14 19:42:00,27.0,2.0,30.18,WNW,294,3.0,-999.0,34,-99.99,,,-99.99,,2013-01-15 02:42:00,
2013-01-14 19:52:00,26.0,2.0,30.18,WNW,294,1.0,-999.0,34,-99.99,,,-99.99,,2013-01-15 02:52:00,
2013-01-14 20:02:00,26.0,2.0,30.18,NNW,327,3.0,-999.0,34,-99.99,,,-99.99,,2013-01-15 03:02:00,
2013-01-14 20:12:00,26.0,2.0,30.18,NNW,327,3.0,-999.0,34,-99.99,,,-99.99,,2013-01-15 03:12:00,
2013-01-14 20:22:00,25.0,1.0,30.19,NW,311,4.0,-999.0,34,-99.99,,,-99.99,,2013-01-15 03:22:00,
2013-01-14 20:32:00,24.0,-3.0,30.18,NW,309,6.0,-999.0,30,-99.99,,,-99.99,,2013-01-15 03:32:00,
2013-01-14 20:42:00,24.0,-3.0,30.18,NW,309,6.0,-999.0,30,-99.99,,,-99.99,,2013-01-15 03:42:00,
2013-01-14 20:52:00,24.0,-3.0,30.19,NW,321,6.0,-999.0,30,-99.99,,,-99.99,,2013-01-15 03:52:00,
2013-01-14 21:02:00,23.0,-4.0,30.19,NW,320,9.0,-999.0,30,-99.99,,,-99.99,,2013-01-15 04:02:00,
2013-01-14 21:12:00,23.0,-4.0,30.19,NW,320,9.0,-999.0,30,-99.99,,,-99.99,,2013-01-15 04:12:00,
2013-01-14 21:22:00,23.0,-3.0,30.19,NNW,347,5.0,-999.0,31,-99.99,,,-99.99,,2013-01-15 04:22:00,
2013-01-14 21:32:00,23.0,-2.0,30.19,North,360,4.0,-999.0,32,-99.99,,,-99.99,,2013-01-15 04:32:00,
2013-01-14 21:42:00,23.0,-2.0,30.19,North,360,4.0,-999.0,32,-99.99,,,-99.99,,2013-01-15 04:42:00,
2013-01-14 21:52:00,22.0,-3.0,30.21,NE,46,2.0,-999.0,32,-99.99,,,-99.99,,2013-01-15 04:52:00,
2013-01-14 22:03:00,22.0,-2.0,30.21,North,360,3.0,-999.0,34,-99.99,,,-99.99,,2013-01-15 05:03:00,
2013-01-14 22:12:00,22.0,-2.0,30.21,North,360,3.0,-999.0,34,-99.99,,,-99.99,,2013-01-15 05:12:00,
2013-01-14 22:22:00,21.0,-2.0,30.21,NNW,336,2.0,-999.0,35,-99.99,,,-99.99,,2013-01-15 05:22:00,
2013-01-14 22:33:00,21.0,-2.0,30.22,NNW,336,0.0,-999.0,35,-99.99,,,-99.99,,2013-01-15 05:33:00,
2013-01-14 22:42:00,21.0,-2.0,30.22,NNW,336,0.0,-999.0,35,-99.99,,,-99.99,,2013-01-15 05:42:00,
2013-01-14 22:52:00,21.0,-1.0,30.22,NNW,336,0.0,-999.0,37,-99.99,,,-99.99,,2013-01-15 05:52:00,
2013-01-14 23:02:00,20.0,-2.0,30.23,NNE,26,1.0,-999.0,37,-99.99,,,-99.99,,2013-01-15 06:02:00,
2013-01-14 23:12:00,20.0,-2.0,30.23,NNE,26,1.0,-999.0,37,-99.99,,,-99.99,,2013-01-15 06:12:00,
2013-01-14 23:22:00,19.0,-2.0,30.23,NNE,26,0.0,-999.0,39,-99.99,,,-99.99,,2013-01-15 06:22:00,
2013-01-14 23:32:00,18.0,-2.0,30.24,NNE,16,1.0,-999.0,41,-99.99,,,-99.99,,2013-01-15 06:32:00,
2013-01-14 23:42:00,18.0,-2.0,30.24,NNE,16,1.0,-999.0,41,-99.99,,,-99.99,,2013-01-15 06:42:00,
2013-01-14 23:52:00,18.0,-1.0,30.24,North,11,1.0,-999.0,42,-99.99,,,-99.99,,2013-01-15 06:52:00,